Tanana, AK

11:42 AM AKST on February 26, 2017 (GMT -0900)
Calhoun Memorial

Weather History for PATA - May, 2013

Change the Weather History Date:

Monday, May 27, 2013

  Actual Average Record
Temperature  
Mean Temperature 60 °F -  
Max Temperature 79 °F 63 °F 84 °F (2011)
Min Temperature 41 °F 38 °F 28 °F (1966)
Degree Days  
Heating Degree Days 6    
Growing Degree Days 10 (Base 50)    
Moisture  
Dew Point 34 °F    
Average Humidity 39    
Maximum Humidity 73    
Minimum Humidity 19    
Precipitation  
Precipitation 0.00 in - - ()
Sea Level Pressure  
Sea Level Pressure 29.80 in    
Wind  
Wind Speed 4 mph (ESE)    
Max Wind Speed 15 mph    
Max Gust Speed 24 mph    
Visibility 10 miles    
Events      
Averages and records for this station are not official NWS values.
T = Trace of Precipitation, MM = Missing Value Source: NWS Daily Summary

Daily Weather History Graph

Daily Weather History Graph

Search for Another Location

Airport or City:

Trip Planner

Search our weather history database for the weather conditions in past years. The results will help you decide how hot, cold, wet, or windy it might be!

Date:

Astronomy

May. 27, 2013 Rise Set
Actual Time 3:57 AM AKDT 12:16 AM AKDT
Civil Twilight Sun does not rise Sun does not rise
Nautical Twilight Sun does not rise Sun does not rise
Astronomical Twilight Sun does not rise Sun does not rise
Moon 1:37 AM AKDT (5/27) 7:23 AM AKDT (5/27)
Length of Visible Light 24h 00m
Length of Day
20h 18m
Waning Gibbous, 90% of the Moon is Illuminated
May 27
Waning Gibbous
May 31
Last Quarter
Jun 8
New
Jun 16
First Quarter
Jun 23
Full

Hourly Weather History & Observations

Time (AKDT) Temp. Windchill Dew Point Humidity Pressure Visibility Wind Dir Wind Speed Gust Speed Precip Events Conditions
12:52 AM 53.1 °F - 34.0 °F 48% 29.79 in 10.0 mi Calm Calm - N/A   Clear
1:52 AM 50.0 °F - 34.0 °F 54% 29.81 in 10.0 mi ENE 3.5 mph - N/A   Clear
2:52 AM 48.0 °F - 33.1 °F 56% 29.81 in 10.0 mi Calm Calm - N/A   Clear
3:52 AM 43.0 °F - 34.0 °F 71% 29.81 in 10.0 mi Calm Calm - N/A   Clear
4:52 AM 42.1 °F 40.2 °F 33.1 °F 70% 29.82 in 10.0 mi WSW 3.5 mph - N/A   Clear
5:52 AM 41.0 °F - 33.1 °F 73% 29.83 in 10.0 mi Calm Calm - N/A   Clear
6:52 AM 48.0 °F - 34.0 °F 58% 29.83 in 10.0 mi ENE 3.5 mph - N/A   Clear
7:52 AM 54.0 °F - 34.0 °F 47% 29.84 in 10.0 mi SSE 4.6 mph - N/A   Clear
8:52 AM 57.0 °F - 35.1 °F 44% 29.84 in 7.0 mi ESE 8.1 mph - N/A   Clear
9:52 AM 59.0 °F - 36.0 °F 42% 29.84 in 10.0 mi ESE 6.9 mph - N/A   Clear
10:52 AM 70.0 °F - 36.0 °F 29% 29.83 in 10.0 mi East 6.9 mph - N/A   Partly Cloudy
11:52 AM 71.1 °F - 35.1 °F 27% 29.82 in 10.0 mi ESE 10.4 mph - N/A   Partly Cloudy
12:52 PM 72.0 °F - 35.1 °F 26% 29.81 in 10.0 mi ESE 9.2 mph - N/A   Partly Cloudy
1:52 PM 73.9 °F - 34.0 °F 23% 29.80 in 10.0 mi ESE 9.2 mph - N/A   Partly Cloudy
2:52 PM 73.0 °F - 34.0 °F 24% 29.80 in 10.0 mi SSE 15.0 mph 24.2 mph N/A   Partly Cloudy
3:52 PM 75.0 °F - 33.1 °F 22% 29.79 in 10.0 mi SE 12.7 mph 20.7 mph N/A   Scattered Clouds
4:52 PM 77.0 °F - 33.1 °F 20% 29.77 in 10.0 mi East 10.4 mph 16.1 mph N/A   Scattered Clouds
5:52 PM 73.9 °F - 33.1 °F 22% 29.77 in 10.0 mi ESE 8.1 mph - N/A   Scattered Clouds
6:52 PM 78.1 °F - 32.0 °F 19% 29.76 in 10.0 mi ESE 6.9 mph - N/A   Scattered Clouds
7:52 PM 71.1 °F - 33.1 °F 25% 29.75 in 10.0 mi SSE 3.5 mph - N/A   Scattered Clouds
8:52 PM 69.1 °F - 34.0 °F 27% 29.75 in 10.0 mi South 3.5 mph - N/A   Scattered Clouds
9:52 PM 75.0 °F - 34.0 °F 22% 29.75 in 10.0 mi Calm Calm - N/A   Clear
10:52 PM 61.0 °F - 37.0 °F 41% 29.75 in 9.0 mi Calm Calm - N/A   Clear
11:52 PM 59.0 °F - 39.9 °F 49% 29.75 in 10.0 mi NE 3.5 mph - N/A   Clear